Wind_Speed
35 33 34 34 33 32 32 33 34 32 32 29 30 29 28 27 28 28 29 29 30 30 31 33 33 35 37 37 40 42 42 40 40 42 43 43 45 45 45 47 48 48 46 46
36 35 36 36 34 33 34 34 34 34 31 29 29 28 28 28 28 28 28 29 30 31 32 33 34 35 37 39 41 42 42 41 42 42 43 44 46 47 46 46 46 46 45 45
38 36 38 37 33 34 34 34 33 33 31 30 28 28 28 29 29 28 28 28 29 31 32 33 34 36 37 39 40 41 41 42 43 43 44 44 45 47 48 46 44 46 45 44
39 39 39 36 33 33 33 32 31 31 30 30 29 28 28 29 29 28 28 28 29 30 30 32 34 35 38 40 40 42 42 42 43 44 45 46 46 46 47 48 46 46 46 45
40 40 40 35 33 33 33 31 30 31 31 30 29 29 28 29 29 28 28 29 29 30 30 32 33 35 37 39 40 40 42 42 43 44 45 47 47 46 45 46 47 47 47 46
40 41 41 36 34 34 34 32 30 31 31 30 30 30 29 30 30 30 29 28 29 30 30 31 32 34 35 37 39 40 41 42 43 43 45 46 45 44 44 45 46 45 46 46
40 41 41 36 34 33 33 32 31 31 30 30 30 30 29 29 29 29 29 29 29 29 29 30 31 33 35 36 37 40 41 42 42 43 45 45 44 43 43 44 45 44 44 44
40 41 39 35 34 33 33 33 32 32 31 31 31 30 30 29 29 29 29 29 30 30 30 30 31 32 34 35 36 38 39 41 42 43 44 44 43 44 45 45 45 45 44 43
40 40 36 35 35 34 33 33 32 32 32 32 31 30 30 30 30 30 30 30 30 30 30 31 31 32 33 34 35 36 37 39 41 43 43 43 43 43 44 44 45 44 43 43
39 37 35 35 34 33 34 33 33 32 32 31 31 30 30 30 29 28 28 29 30 30 30 30 31 31 32 33 33 34 36 38 40 42 43 43 43 43 44 44 44 44 43 42
39 36 36 34 34 34 34 34 33 33 32 32 32 31 30 30 29 28 28 28 29 29 30 30 30 30 31 32 32 32 34 36 38 40 41 43 44 44 44 43 43 43 44 44
38 35 35 34 33 34 34 34 34 33 32 32 31 31 30 30 29 29 29 28 29 29 29 29 29 30 30 31 31 31 31 32 35 37 39 41 43 44 44 43 43 43 43 43
36 34 34 33 32 33 33 33 33 32 31 30 29 29 29 29 29 29 29 29 28 28 29 29 29 30 30 31 32 33 32 32 33 35 36 39 41 42 42 43 43 43 44 43
33 34 33 32 32 33 33 32 31 30 30 28 28 28 27 28 28 28 29 28 28 28 28 28 28 29 29 31 32 33 33 33 33 33 35 37 39 41 42 42 43 43 43 42
32 32 32 32 32 32 32 31 30 29 28 28 28 27 27 27 27 28 28 28 27 26 26 26 26 27 28 29 30 32 33 33 33 33 34 36 37 38 40 42 42 43 43 41
31 31 31 31 30 30 30 29 28 27 27 27 27 27 27 27 27 26 26 26 26 26 25 25 25 26 27 27 28 30 31 32 32 33 33 34 36 36 37 39 40 41 41 40
28 28 28 28 28 27 27 26 26 26 25 25 25 25 26 25 25 24 24 25 25 25 25 26 25 26 26 26 27 28 29 30 31 32 32 32 33 34 35 36 38 39 39 39
26 26 26 26 26 25 24 24 25 25 24 25 24 24 25 24 23 24 24 24 24 24 25 26 26 26 26 27 26 27 28 29 30 31 31 32 31 32 34 35 35 37 38 39
25 25 25 25 24 24 24 24 24 24 24 24 24 24 24 24 24 24 24 24 24 24 25 25 25 26 26 27 27 27 27 28 29 31 32 31 31 31 33 34 35 34 35 36
24 24 24 23 23 23 23 24 24 24 24 24 24 24 23 24 24 24 24 24 24 24 24 25 25 26 26 26 26 26 26 27 29 30 32 32 31 31 32 34 35 34 34 34
24 23 23 23 23 23 23 23 24 24 24 24 24 23 23 23 23 22 22 22 22 23 23 24 25 25 25 25 25 25 25 26 27 29 31 31 31 30 31 33 34 34 34 33
23 23 23 23 23 23 24 24 23 23 23 23 23 23 22 22 21 20 20 20 20 21 21 22 23 25 25 25 25 25 25 25 26 27 28 29 30 30 30 31 32 34 33 32
23 23 23 23 23 23 23 23 23 22 22 22 22 22 21 21 20 19 20 20 20 20 20 20 21 23 24 24 24 24 24 23 24 25 25 26 28 29 29 30 31 32 32 32
23 23 23 23 23 22 22 22 21 20 20 21 21 21 20 19 19 19 19 20 20 20 20 20 20 21 22 22 22 22 22 22 22 23 24 24 24 26 28 29 30 31 31 31
23 23 23 23 22 21 21 20 20 19 19 19 19 19 19 18 18 18 19 19 19 20 20 19 20 20 21 21 21 21 21 21 22 22 23 24 23 24 26 27 29 30 30 29
23 23 22 22 21 20 20 19 19 18 18 17 17 17 17 17 16 16 16 17 18 18 18 18 18 19 20 20 20 20 20 21 21 22 23 24 24 25 25 26 27 28 28 28
22 21 21 20 20 20 19 18 18 17 17 16 16 15 15 15 15 15 15 15 15 15 16 16 16 16 17 18 19 19 20 20 20 22 23 24 25 25 25 25 26 27 27 27
Wind_Direction
295 294 293 293 294 293 292 292 290 291 290 290 285 283 281 278 276 273 269 265 262 260 256 251 248 245 240 236 232 230 231 232 231 231 230 228 227 226 226 227 227 229 232 233
291 291 290 291 293 291 290 289 288 288 289 287 282 281 280 278 276 272 268 267 264 262 260 253 248 244 240 237 234 232 233 233 232 231 230 228 227 226 226 226 227 229 231 233
289 289 289 291 295 291 289 287 286 286 288 285 282 281 280 277 274 271 269 268 267 265 261 258 252 246 242 237 236 234 234 234 233 232 230 230 228 228 227 227 228 229 231 233
288 288 288 295 294 291 287 286 284 284 285 285 283 281 279 277 275 272 268 267 267 266 263 259 254 248 243 239 237 235 235 234 233 231 230 230 229 227 227 228 231 231 231 232
286 287 289 293 294 292 288 286 283 283 284 283 282 279 278 277 275 273 270 267 265 265 263 259 255 249 244 240 237 235 234 232 232 231 230 229 228 227 228 230 231 232 233 235
285 286 289 293 291 289 287 286 284 283 283 282 282 280 276 275 275 273 270 268 267 267 265 259 254 248 244 239 236 235 233 231 231 229 227 227 227 228 228 228 229 232 233 234
283 284 286 291 288 287 286 286 285 285 284 282 280 279 277 275 274 272 270 269 267 266 264 259 254 249 244 240 237 235 234 232 230 227 226 226 228 230 229 228 229 231 233 233
281 281 285 285 284 283 283 282 284 284 283 282 279 277 276 275 274 273 271 269 267 266 263 259 253 249 245 241 238 236 234 233 231 229 228 228 229 231 231 230 231 232 233 235
280 280 282 281 281 281 281 282 282 282 282 281 278 276 275 275 274 272 271 268 266 264 261 257 253 248 244 241 239 237 234 232 232 231 231 230 231 230 231 231 233 233 233 237
280 280 280 279 279 280 281 282 283 283 283 280 277 275 276 275 274 273 272 268 264 262 259 256 252 248 244 242 239 237 235 234 234 233 233 233 233 232 232 233 234 234 236 238
280 280 278 276 276 277 279 281 282 282 281 279 276 274 275 275 274 274 273 270 267 262 258 254 250 248 245 242 239 238 235 235 235 235 233 230 231 233 232 234 236 236 237 238
280 279 277 276 274 275 278 281 282 281 279 278 277 275 275 274 273 273 273 270 267 263 257 253 249 246 244 242 239 237 235 234 233 232 233 231 230 232 233 233 234 235 236 237
277 276 275 276 276 277 279 280 281 280 279 277 276 276 275 273 272 272 272 270 266 261 256 252 248 245 243 242 239 237 235 234 234 234 233 232 230 231 232 233 233 234 235 236
275 274 274 275 277 277 278 279 279 277 276 276 276 275 275 273 272 272 271 268 265 259 254 252 249 245 242 241 240 238 236 234 234 234 234 233 232 232 232 232 231 231 233 234
274 274 273 275 276 278 277 278 277 275 275 274 275 276 277 276 275 273 270 266 262 257 252 249 247 243 242 240 240 239 236 235 236 235 235 235 233 232 232 231 230 230 231 232
273 273 274 275 276 277 277 276 275 275 276 275 275 276 277 278 276 273 268 264 260 255 250 247 244 243 241 240 239 238 236 236 236 235 235 235 233 232 231 230 229 229 229 231
274 274 275 275 275 277 277 275 274 274 274 273 274 275 277 278 276 272 267 263 258 252 249 247 244 243 241 239 239 240 238 237 236 235 234 234 235 235 232 231 231 230 229 230
276 276 275 275 275 276 276 275 273 272 272 272 273 274 275 275 274 271 266 263 257 252 249 247 245 244 243 241 241 241 240 238 236 235 233 232 234 234 232 230 231 230 229 230
276 276 276 275 275 274 275 274 272 270 271 272 273 273 273 274 273 271 266 261 257 252 249 248 246 244 242 241 241 241 242 240 238 235 233 232 232 231 228 229 228 228 229 231
277 277 276 275 274 274 274 272 271 271 272 272 273 273 273 273 272 269 265 261 256 252 250 248 246 244 242 242 241 241 242 241 238 235 232 232 231 230 228 227 226 227 228 229
279 278 277 276 275 275 275 274 273 274 273 272 271 271 272 273 272 268 264 258 253 250 249 248 245 243 241 241 241 241 241 240 239 236 233 231 230 230 229 227 226 226 226 227
280 279 278 278 277 277 276 276 276 275 273 271 270 270 271 271 269 266 261 256 252 251 250 249 246 243 241 240 240 240 241 240 238 236 233 230 229 228 227 226 225 224 224 223
280 280 280 279 278 278 279 279 277 274 272 271 270 270 269 268 266 262 257 253 253 253 253 251 249 244 241 239 239 239 239 238 235 231 229 227 225 225 224 223 220 219 217 218
280 280 280 280 280 279 279 278 276 274 272 271 271 269 268 267 265 262 257 253 251 251 252 251 248 244 240 238 237 236 236 233 229 226 224 222 221 219 217 215 214 214 214 214
280 279 278 278 279 278 277 275 273 271 271 271 270 268 269 268 265 262 257 253 252 252 251 248 246 243 240 237 233 231 229 225 223 221 218 217 216 213 212 213 212 211 211 210
279 278 277 276 277 277 276 273 271 270 270 270 269 267 268 268 264 260 257 254 252 249 247 245 244 241 236 231 227 226 223 220 219 218 214 214 213 210 209 209 208 207 206 206
279 277 276 276 277 277 276 273 271 269 268 268 269 269 268 266 260 257 255 252 249 246 243 241 240 234 228 224 221 220 216 215 214 212 210 208 207 206 205 204 203 202 202 202
Height
5562 5559 5555 5552 5550 5547 5542 5539 5535 5534 5532 5532 5529 5526 5525 5524 5523 5523 5522 5523 5523 5524 5526 5527 5528 5530 5532 5535 5539 5543 5548 5552 5557 5563 5568 5573 5579 5585 5592 5599 5606 5612 5618 5625
5552 5550 5546 5543 5543 5539 5534 5531 5527 5524 5524 5524 5520 5519 5518 5517 5515 5515 5515 5515 5515 5516 5517 5517 5519 5521 5524 5527 5530 5534 5539 5543 5548 5553 5559 5564 5570 5576 5583 5590 5596 5603 5609 5615
5541 5540 5535 5535 5536 5530 5526 5523 5520 5517 5517 5515 5513 5512 5511 5509 5508 5507 5507 5506 5506 5507 5507 5508 5510 5512 5514 5518 5521 5525 5529 5534 5539 5544 5550 5555 5561 5567 5574 5580 5586 5593 5600 5606
5529 5528 5525 5529 5525 5521 5516 5515 5512 5509 5508 5506 5505 5503 5502 5501 5500 5499 5499 5498 5498 5498 5498 5499 5500 5502 5505 5508 5512 5516 5520 5524 5529 5534 5540 5546 5552 5558 5564 5571 5577 5584 5590 5596
5518 5514 5513 5518 5515 5510 5506 5507 5505 5501 5499 5498 5496 5495 5495 5492 5491 5490 5490 5490 5490 5489 5489 5490 5491 5492 5495 5498 5502 5506 5510 5515 5519 5525 5531 5537 5543 5550 5556 5562 5568 5575 5581 5587
5507 5503 5503 5509 5505 5500 5497 5497 5496 5492 5490 5489 5487 5486 5486 5484 5482 5481 5481 5481 5481 5481 5481 5481 5481 5483 5485 5489 5493 5497 5501 5506 5511 5516 5522 5529 5535 5541 5547 5553 5559 5565 5571 5577
5497 5492 5492 5497 5493 5490 5488 5488 5485 5483 5481 5479 5477 5476 5475 5474 5473 5472 5472 5471 5472 5472 5471 5472 5472 5474 5476 5479 5483 5487 5492 5497 5502 5507 5513 5520 5526 5531 5537 5543 5550 5556 5562 5568
5486 5483 5486 5485 5482 5480 5478 5476 5475 5473 5471 5470 5468 5466 5465 5465 5464 5463 5462 5462 5462 5462 5462 5462 5463 5465 5467 5470 5474 5478 5482 5488 5493 5498 5504 5510 5516 5522 5528 5534 5540 5547 5552 5558
5475 5476 5475 5473 5470 5469 5467 5466 5464 5462 5461 5460 5458 5457 5456 5455 5454 5453 5453 5453 5452 5453 5453 5453 5454 5456 5458 5461 5465 5469 5473 5478 5483 5489 5494 5501 5507 5512 5518 5524 5531 5537 5543 5549
5463 5464 5464 5461 5459 5458 5456 5454 5453 5452 5451 5449 5448 5447 5446 5445 5444 5444 5443 5443 5443 5443 5443 5444 5445 5447 5449 5452 5455 5459 5464 5469 5473 5479 5484 5491 5497 5503 5509 5515 5521 5527 5533 5539
5451 5453 5451 5450 5449 5447 5445 5444 5443 5442 5440 5439 5438 5437 5436 5436 5435 5435 5434 5433 5433 5433 5434 5435 5436 5438 5441 5444 5447 5451 5455 5460 5464 5469 5474 5480 5486 5492 5499 5506 5511 5518 5523 5529
5440 5441 5438 5438 5438 5436 5435 5434 5432 5431 5430 5429 5428 5427 5427 5426 5426 5425 5425 5424 5424 5424 5425 5426 5428 5430 5432 5435 5438 5442 5447 5451 5455 5460 5465 5470 5476 5483 5488 5495 5501 5506 5512 5518
5429 5428 5427 5427 5427 5426 5424 5423 5422 5420 5419 5419 5418 5417 5417 5416 5416 5415 5415 5415 5414 5415 5415 5417 5419 5421 5424 5427 5430 5434 5438 5442 5446 5450 5455 5460 5465 5472 5478 5484 5490 5496 5501 5507
5418 5417 5417 5417 5416 5415 5414 5413 5412 5411 5410 5409 5408 5408 5407 5407 5406 5406 5405 5405 5405 5405 5407 5408 5410 5412 5415 5418 5421 5425 5429 5433 5437 5441 5446 5450 5456 5461 5467 5473 5479 5485 5490 5496
5408 5407 5407 5407 5406 5405 5404 5403 5402 5402 5401 5400 5399 5399 5398 5397 5397 5396 5396 5395 5396 5397 5398 5400 5402 5404 5406 5409 5413 5416 5420 5424 5428 5432 5436 5441 5446 5451 5457 5463 5469 5475 5481 5486
5398 5398 5397 5397 5396 5395 5394 5394 5393 5392 5392 5391 5390 5390 5389 5388 5387 5387 5387 5386 5387 5388 5390 5392 5394 5396 5398 5401 5404 5408 5411 5415 5419 5423 5427 5431 5436 5441 5446 5452 5458 5464 5470 5476
5389 5389 5388 5388 5387 5386 5385 5385 5384 5383 5383 5382 5382 5381 5380 5379 5379 5378 5378 5378 5379 5380 5382 5384 5386 5388 5391 5393 5396 5399 5402 5406 5410 5414 5418 5423 5427 5432 5436 5442 5448 5454 5460 5466
5380 5380 5379 5379 5378 5377 5377 5376 5376 5375 5374 5373 5373 5372 5371 5371 5370 5370 5370 5370 5371 5372 5374 5376 5378 5380 5383 5385 5388 5391 5394 5397 5401 5405 5409 5414 5418 5422 5427 5433 5438 5444 5450 5455
5372 5371 5371 5370 5369 5369 5369 5368 5367 5366 5366 5365 5364 5364 5363 5362 5362 5361 5361 5362 5363 5364 5366 5367 5369 5372 5374 5377 5380 5383 5386 5389 5392 5396 5401 5405 5409 5414 5419 5424 5429 5435 5440 5445
5364 5363 5362 5362 5361 5360 5360 5359 5359 5358 5357 5357 5356 5355 5355 5354 5353 5353 5353 5354 5355 5356 5357 5359 5361 5363 5366 5369 5372 5375 5378 5381 5384 5388 5392 5396 5401 5405 5410 5415 5420 5425 5431 5436
5356 5355 5354 5353 5353 5352 5351 5351 5350 5350 5349 5348 5347 5347 5346 5346 5345 5345 5345 5346 5347 5348 5349 5351 5353 5355 5358 5360 5363 5366 5369 5372 5375 5379 5383 5387 5392 5396 5401 5406 5411 5417 5422 5428
5348 5347 5346 5345 5345 5344 5343 5342 5342 5341 5340 5339 5338 5338 5338 5337 5337 5337 5337 5338 5339 5340 5341 5343 5345 5347 5349 5352 5355 5358 5361 5364 5367 5371 5375 5379 5383 5388 5393 5398 5403 5408 5414 5420
5340 5339 5338 5337 5337 5336 5335 5334 5333 5332 5331 5331 5330 5330 5330 5329 5329 5330 5330 5331 5331 5332 5334 5335 5337 5339 5341 5344 5347 5350 5353 5356 5359 5363 5367 5371 5376 5380 5385 5390 5395 5401 5407 5413
5332 5331 5330 5329 5328 5328 5327 5326 5325 5324 5324 5323 5323 5322 5322 5322 5322 5322 5322 5323 5324 5325 5327 5328 5329 5332 5334 5337 5340 5342 5345 5349 5352 5356 5360 5364 5369 5373 5378 5383 5389 5394 5400 5406
5324 5323 5322 5321 5321 5320 5319 5318 5318 5317 5316 5316 5315 5315 5314 5314 5314 5314 5315 5315 5316 5318 5319 5321 5322 5324 5327 5330 5333 5336 5339 5342 5346 5350 5354 5359 5363 5368 5372 5378 5383 5389 5395 5400
5316 5315 5314 5314 5313 5312 5312 5311 5311 5310 5310 5309 5309 5308 5308 5307 5307 5308 5308 5309 5309 5311 5312 5314 5315 5317 5320 5323 5326 5330 5333 5337 5340 5344 5349 5354 5358 5363 5368 5373 5378 5384 5390 5396
5307 5307 5306 5306 5305 5305 5304 5304 5304 5304 5303 5303 5303 5303 5302 5302 5302 5302 5302 5303 5304 5305 5306 5308 5309 5312 5314 5317 5321 5324 5328 5332 5336 5340 5344 5349 5354 5359 5364 5369 5375 5380 5386 5392